{"data":{"norad_id":63116,"epoch":"2026-05-25T00:20:38.079168Z","epoch_age_seconds":70835,"freshness":"FRESH","line1":"1 63116U 25039N   26145.01432962  .00210636  00000+0  15990-2 0  9994","line2":"2 63116  42.9989 136.3975 0001575 239.1029 120.9684 15.70911028 71628","mean_motion":15.70911028,"eccentricity":0.0001575,"inclination_deg":42.9989,"raan_deg":136.3975,"arg_perigee_deg":239.1029,"mean_anomaly_deg":120.9684,"bstar":0.001599,"rev_number":7162,"period_min":91.66655363247,"perigee_km":355.23138532408,"apogee_km":357.35273047732,"semimajor_km":6734.4290579007,"source":"CELESTRAK","updated_at":"2026-05-25T13:38:19.910556Z"}}